Tracking 19817 objects as of 20-Aug-2019
HD Live streaming from Space Station
objects crossing your sky now

COSMOS 2251 DEB

Track COSMOS 2251 DEB now!
10-day predictions


NORAD ID: 33823
Int'l Code: 1993-036BQ
Perigee: 761.7 km
Apogee: 1,084.8 km
Inclination: 73.8 °
Period: 103.3 minutes
Semi major axis: 7294 km
RCS: 0.0432 m2 (small)
Launch date: June 16, 1993
Source: Commonwealth of Independent States (former USSR) (CIS)
Launch site: PLESETSK MISSILE AND SPACE COMPLEX (PKMTR)

Note: This is SATELLITE DEBRIS
aabbcc
Your satellite tracking list
Your tracking list is empty




NASA's NSSDC Master Catalog

Two Line Element Set (TLE):
1 33823U 93036BQ  19231.93751472 +.00000214 +00000-0 +14906-3 0  9994
2 33823 073.8124 207.3222 0221459 008.8876 023.5719 13.93584206534352
Source of the keplerian elements: AFSPC